Weather History for Himsel Army Airfld, Nineveh,, IN

Change the Weather History Date:

Thursday, December 5, 2013

  Actual Average (KGEZ) Record (KGEZ)
Temperature  
Mean Temperature 45 °F 35 °F  
Max Temperature 62 °F 43 °F 66 °F (2001)
Min Temperature 28 °F 27 °F 3 °F (2007)
Degree Days  
Heating Degree Days 20 30  
Month to date heating degree days 146  
Since 1 July heating degree days 1221  
Cooling Degree Days 0 0  
Month to date cooling degree days 0  
Year to date cooling degree days 913  
Moisture  
Dew Point 36 °F    
Average Humidity 85    
Maximum Humidity 93    
Minimum Humidity 71    
Precipitation  
Precipitation 0.00 in 0.12 in 1.52 in (2014)
Month to date precipitation 0.55  
Year to date precipitation 40.84  
Sea Level Pressure  
Sea Level Pressure 30.00 in    
Wind  
Wind Speed 8 mph (NW)    
Max Wind Speed 17 mph    
Max Gust Speed 22 mph    
T = Trace of Precipitation, MM = Missing Value Source: NWS Daily Summary

Daily Weather History Graph

Daily Weather History Graph

Search for Another Location

Airport:

Trip Planner

Search our weather history database for the weather conditions in past years. The results will help you decide how hot, cold, wet, or windy it might be!

Date:

Astronomy

Dec. 05, 2013 Rise Set
Actual Time 7:48 AM EST 5:20 PM EST
Civil Twilight 7:19 AM EST 5:50 PM EST
Nautical Twilight 6:45 AM EST 6:23 PM EST
Astronomical Twilight 6:13 AM EST 6:56 PM EST
Moon 10:09 AM EST (12/5) 8:40 PM EST (12/5)
Length of Visible Light 10h 31m
Length of Day
9h 31m
Waxing Crescent, 10% of the Moon is Illuminated
Dec 5
Waxing Crescent
Dec 9
First Quarter
Dec 17
Full
Dec 25
Last Quarter
Jan 1
New

Hourly Weather History & Observations

Time (EST) Temp. Windchill Dew Point Humidity Pressure Visibility Wind Dir Wind Speed Gust Speed Precip Events Conditions
12:15 AM 60.8 °F - 53.6 °F 77% 29.74 in - SSW 4.6 mph - N/A   Scattered Clouds
12:35 AM 60.8 °F - 53.6 °F 77% 29.76 in - SW 6.9 mph - N/A   Mostly Cloudy
12:55 AM 62.6 °F - 55.4 °F 77% 29.76 in - SW 5.8 mph - N/A   Overcast
1:15 AM 62.6 °F - 55.4 °F 77% 29.75 in - SW 6.9 mph - N/A   Scattered Clouds
1:35 AM 62.6 °F - 55.4 °F 77% 29.75 in - SW 6.9 mph - N/A   Scattered Clouds
1:55 AM 62.6 °F - 55.4 °F 77% 29.75 in - SW 8.1 mph - N/A   Mostly Cloudy
2:15 AM 62.6 °F - 55.4 °F 77% 29.76 in - WSW 8.1 mph - N/A   Overcast
2:35 AM 62.6 °F - 55.4 °F 77% 29.77 in - WSW 6.9 mph - N/A   Overcast
2:55 AM 62.6 °F - 55.4 °F 77% 29.78 in - West 9.2 mph - N/A   Overcast
3:15 AM 62.6 °F - 53.6 °F 72% 29.79 in - West 6.9 mph - N/A   Mostly Cloudy
3:35 AM 55.4 °F - 50.0 °F 82% 29.80 in - NW 5.8 mph - N/A   Overcast
3:55 AM 53.6 °F - 48.2 °F 82% 29.80 in - NW 4.6 mph - N/A   Unknown
4:15 AM 53.6 °F - 46.4 °F 77% 29.81 in - WNW 4.6 mph - N/A   Unknown
4:35 AM 51.8 °F - 46.4 °F 82% 29.82 in - WNW 4.6 mph - N/A   Unknown
4:55 AM 51.8 °F - 44.6 °F 76% 29.82 in - WNW 4.6 mph - N/A   Scattered Clouds
5:15 AM 51.8 °F - 44.6 °F 76% 29.83 in - WNW 6.9 mph - N/A   Overcast
5:35 AM 50.0 °F - 44.6 °F 82% 29.83 in - NNW 6.9 mph - N/A   Overcast
5:55 AM 48.2 °F - 44.6 °F 87% 29.84 in - NW 6.9 mph - N/A   Overcast
6:15 AM 50.0 °F - 44.6 °F 82% 29.87 in - WNW 10.4 mph - N/A   Overcast
6:35 AM 46.4 °F 40.7 °F 41.0 °F 81% 29.89 in - WNW 12.7 mph - N/A   Overcast
6:55 AM 46.4 °F 40.1 °F 39.2 °F 76% 29.90 in - WNW 15.0 mph 21.9 mph N/A   Overcast
7:15 AM 46.4 °F 41.1 °F 37.4 °F 71% 29.91 in - WNW 11.5 mph 18.4 mph N/A   Overcast
7:35 AM 44.6 °F 40.2 °F 37.4 °F 76% 29.92 in - NW 8.1 mph - N/A   Overcast
7:55 AM 44.6 °F 40.7 °F 37.4 °F 76% 29.93 in - WNW 6.9 mph - N/A   Overcast
8:15 AM 42.8 °F 37.0 °F 37.4 °F 81% 29.93 in - NW 10.4 mph 16.1 mph N/A   Overcast
8:35 AM 42.8 °F 38.0 °F 35.6 °F 76% 29.95 in - NW 8.1 mph - N/A   Overcast
8:55 AM 42.8 °F 37.0 °F 35.6 °F 76% 29.94 in - NW 10.4 mph - N/A   Overcast
9:15 AM 42.8 °F 37.0 °F 35.6 °F 76% 29.96 in - NW 10.4 mph 16.1 mph N/A   Overcast
9:35 AM 41.0 °F 33.9 °F 35.6 °F 81% 29.97 in - NW 12.7 mph 16.1 mph N/A   Overcast
9:55 AM 41.0 °F 33.1 °F 33.8 °F 76% 29.99 in - WNW 15.0 mph 20.7 mph N/A   Overcast
10:15 AM 41.0 °F 32.5 °F 33.8 °F 76% 30.00 in - NW 17.3 mph 21.9 mph N/A   Overcast
10:35 AM 37.4 °F 30.3 °F 32.0 °F 81% 30.02 in - NW 10.4 mph 20.7 mph N/A   Overcast
10:55 AM 37.4 °F 29.8 °F 32.0 °F 81% 30.03 in - NW 11.5 mph 20.7 mph N/A   Overcast
11:15 AM 37.4 °F 29.8 °F 32.0 °F 81% 30.03 in - NW 11.5 mph 17.3 mph N/A   Overcast
11:35 AM 37.4 °F 28.5 °F 32.0 °F 81% 30.05 in - WNW 15.0 mph 18.4 mph N/A   Overcast
11:55 AM 37.4 °F 28.9 °F 32.0 °F 81% 30.05 in - WNW 13.8 mph 18.4 mph N/A   Overcast
12:15 PM 35.6 °F 27.5 °F 32.0 °F 87% 30.06 in - WNW 11.5 mph - N/A   Overcast
12:35 PM 35.6 °F 28.0 °F 32.0 °F 87% 30.05 in - NW 10.4 mph - N/A   Overcast
12:55 PM 35.6 °F 29.2 °F 32.0 °F 87% 30.03 in - NW 8.1 mph - N/A   Overcast
1:15 PM 35.6 °F 29.2 °F 32.0 °F 87% 30.04 in - NW 8.1 mph - N/A   Overcast
1:35 PM 35.6 °F 28.6 °F 32.0 °F 87% 30.04 in - NW 9.2 mph - N/A   Overcast
1:55 PM 35.6 °F 29.2 °F 32.0 °F 87% 30.03 in - NW 8.1 mph 16.1 mph N/A   Overcast
2:15 PM 35.6 °F 28.0 °F 32.0 °F 87% 30.05 in - NW 10.4 mph - N/A   Overcast
2:35 PM 33.8 °F 25.8 °F 30.2 °F 87% 30.03 in - NNW 10.4 mph - N/A   Overcast
2:55 PM 33.8 °F 25.3 °F 32.0 °F 93% 30.05 in - NW 11.5 mph - N/A   Overcast
3:15 PM 33.8 °F 25.3 °F 32.0 °F 93% 30.07 in - NW 11.5 mph 18.4 mph N/A   Overcast
3:35 PM 33.8 °F 26.4 °F 30.2 °F 87% 30.08 in - NW 9.2 mph 16.1 mph N/A   Overcast
3:55 PM 33.8 °F 27.7 °F 30.2 °F 87% 30.09 in - WNW 6.9 mph - N/A   Unknown
4:15 PM 32.0 °F 25.6 °F 30.2 °F 93% 30.12 in - NW 6.9 mph - N/A   Unknown
4:35 PM 32.0 °F 24.8 °F 30.2 °F 93% 30.12 in - NW 8.1 mph - N/A   Unknown
4:55 PM 32.0 °F 25.6 °F 30.2 °F 93% 30.14 in - WNW 6.9 mph - N/A   Unknown
5:15 PM 32.0 °F 24.8 °F 30.2 °F 93% 30.13 in - NNW 8.1 mph - N/A   Unknown
5:35 PM 32.0 °F 24.2 °F 30.2 °F 93% 30.12 in - NW 9.2 mph - N/A   Overcast
5:55 PM 32.0 °F 26.4 °F 30.2 °F 93% 30.09 in - North 5.8 mph - N/A   Unknown
6:15 PM 32.0 °F 24.8 °F 30.2 °F 93% 30.08 in - North 8.1 mph - N/A   Unknown
6:35 PM 32.0 °F 24.8 °F 30.2 °F 93% 30.10 in - NNW 8.1 mph - N/A   Unknown
6:55 PM 32.0 °F 24.2 °F 30.2 °F 93% 30.12 in - NW 9.2 mph - N/A   Unknown
7:15 PM 32.0 °F 23.6 °F 30.2 °F 93% 30.12 in - NNW 10.4 mph - N/A   Overcast
7:35 PM 32.0 °F 22.5 °F 30.2 °F 93% 30.16 in - WNW 12.7 mph 18.4 mph N/A   Overcast
7:55 PM 30.2 °F 21.3 °F 28.4 °F 93% 30.16 in - NW 10.4 mph - N/A   Unknown
8:15 PM 30.2 °F 22.6 °F 28.4 °F 93% 30.18 in - NW 8.1 mph - N/A   Unknown
8:35 PM 30.2 °F 22.6 °F 28.4 °F 93% 30.21 in - NW 8.1 mph - N/A   Unknown
8:55 PM 28.4 °F 19.7 °F 26.6 °F 93% 30.18 in - NNW 9.2 mph 17.3 mph N/A   Overcast
9:15 PM 28.4 °F 22.2 °F 26.6 °F 93% 30.17 in - NNW 5.8 mph - N/A   Unknown
9:35 PM 28.4 °F 22.2 °F 26.6 °F 93% 30.17 in - NNW 5.8 mph - N/A   Unknown
9:55 PM 28.4 °F 22.2 °F 26.6 °F 93% 30.18 in - NNW 5.8 mph - N/A   Unknown
10:15 PM 28.4 °F 23.3 °F 26.6 °F 93% 30.19 in - NNW 4.6 mph - N/A   Unknown
10:35 PM 28.4 °F 22.2 °F 26.6 °F 93% 30.18 in - NNW 5.8 mph - N/A   Overcast
10:55 PM 28.4 °F 20.4 °F 26.6 °F 93% 30.19 in - NNW 8.1 mph - N/A   Unknown
11:15 PM 28.4 °F 20.4 °F 26.6 °F 93% 30.21 in - NW 8.1 mph - N/A   Unknown
11:35 PM 28.4 °F 22.2 °F 26.6 °F 93% 30.19 in - NNW 5.8 mph - N/A   Overcast
11:55 PM 28.4 °F 21.2 °F 26.6 °F 93% 30.21 in - NNW 6.9 mph - N/A   Overcast